FDX7AB EIKN-EGGW

Flight info

Callsign FDX7AB
Flight time 1h 18m
Altitude 31000
Route DCT CON DCT OLAPO DCT BOFUM Q37 MALUD Q38 VOLFI Z197 LISTO LISTO1N
Aircraft B738/M-SDE2E3FGHIRWXY/LB1

Departure

Time 2026-05-09 20:03
Airport Ireland West Airport Knock (EIKN)

Arrival

Time 2026-05-09 21:21
Airport London Luton Airport (EGGW)
Time Latitude Longitude Altitude Speed Heading
2026-05-09 19:24 53.91344 -8.81006 649 ft 0 kts 259°
2026-05-09 19:52 53.91342 -8.81010 648 ft 0 kts 248°
2026-05-09 19:52 53.91338 -8.81018 650 ft 0 kts 226°
2026-05-09 19:53 53.91328 -8.81014 648 ft 3 kts 154°
2026-05-09 19:53 53.91326 -8.80974 651 ft 5 kts 76°
2026-05-09 19:53 53.91330 -8.80933 651 ft 1 kts 99°
2026-05-09 19:53 53.91326 -8.80922 651 ft 0 kts 126°
2026-05-09 19:54 53.91300 -8.80901 651 ft 5 kts 163°
2026-05-09 19:54 53.91259 -8.80889 651 ft 6 kts 175°
2026-05-09 19:54 53.91218 -8.80881 652 ft 6 kts 171°
2026-05-09 19:54 53.91177 -8.80872 653 ft 6 kts 183°
2026-05-09 19:55 53.91143 -8.80923 653 ft 9 kts 244°
2026-05-09 19:55 53.91128 -8.81032 653 ft 10 kts 259°
2026-05-09 19:55 53.91113 -8.81156 652 ft 12 kts 258°
2026-05-09 19:56 53.91076 -8.81471 649 ft 14 kts 259°
2026-05-09 19:56 53.91058 -8.81630 650 ft 13 kts 258°
2026-05-09 19:56 53.91039 -8.81788 650 ft 14 kts 258°
2026-05-09 19:56 53.91020 -8.81943 650 ft 13 kts 258°
2026-05-09 19:57 53.91003 -8.82091 652 ft 13 kts 258°
2026-05-09 19:57 53.90985 -8.82236 654 ft 12 kts 258°
2026-05-09 19:57 53.90967 -8.82386 654 ft 14 kts 258°
2026-05-09 19:57 53.90944 -8.82575 652 ft 19 kts 258°
2026-05-09 19:58 53.90918 -8.82799 652 ft 19 kts 259°
2026-05-09 19:58 53.90893 -8.83020 650 ft 19 kts 259°
2026-05-09 19:58 53.90868 -8.83242 652 ft 19 kts 258°
2026-05-09 19:58 53.90840 -8.83455 652 ft 18 kts 247°
2026-05-09 19:59 53.90782 -8.83632 652 ft 18 kts 282°
2026-05-09 19:59 53.90806 -8.83654 652 ft 3 kts 25°
2026-05-09 19:59 53.90819 -8.83617 652 ft 5 kts 73°
2026-05-09 19:59 53.90821 -8.83605 652 ft 0 kts 78°
2026-05-09 20:02 53.90821 -8.83604 649 ft 2 kts 78°
2026-05-09 20:02 53.90879 -8.83122 651 ft 101 kts 78°
2026-05-09 20:02 53.91076 -8.81346 769 ft 194 kts 77°
2026-05-09 20:03 53.91204 -8.76064 2780 ft 254 kts 92°
2026-05-09 20:03 53.90929 -8.73085 3850 ft 257 kts 96°
2026-05-09 20:03 53.90616 -8.70197 4937 ft 248 kts 98°
2026-05-09 20:03 53.90239 -8.67406 6130 ft 239 kts 97°
2026-05-09 20:04 53.89999 -8.64568 7012 ft 246 kts 94°
2026-05-09 20:04 53.89771 -8.61675 7992 ft 251 kts 94°
2026-05-09 20:04 53.89521 -8.58593 8695 ft 273 kts 96°
2026-05-09 20:04 53.89252 -8.55352 9725 ft 282 kts 96°
2026-05-09 20:05 53.88975 -8.52055 10736 ft 291 kts 96°
2026-05-09 20:05 53.88677 -8.48498 11178 ft 321 kts 96°
2026-05-09 20:05 53.88350 -8.44564 11421 ft 353 kts 96°
2026-05-09 20:05 53.87996 -8.40336 12038 ft 369 kts 96°
2026-05-09 20:06 53.87627 -8.35988 12917 ft 376 kts 96°
2026-05-09 20:06 53.87247 -8.31579 13939 ft 380 kts 96°
2026-05-09 20:06 53.86862 -8.27133 14825 ft 384 kts 96°
2026-05-09 20:06 53.86468 -8.22618 15653 ft 390 kts 96°
2026-05-09 20:07 53.86067 -8.18033 16475 ft 395 kts 96°
2026-05-09 20:07 53.85660 -8.13399 17314 ft 400 kts 97°
2026-05-09 20:07 53.85251 -8.08766 18105 ft 406 kts 96°
2026-05-09 20:07 53.84830 -8.04006 18835 ft 412 kts 97°
2026-05-09 20:08 53.84403 -7.99188 19548 ft 416 kts 97°
2026-05-09 20:08 53.83536 -7.89407 20959 ft 423 kts 97°
2026-05-09 20:08 53.83093 -7.84448 21615 ft 429 kts 97°
2026-05-09 20:09 53.82640 -7.79428 22188 ft 435 kts 97°
2026-05-09 20:09 53.82177 -7.74334 22790 ft 440 kts 97°
2026-05-09 20:09 53.81708 -7.69207 23498 ft 442 kts 97°
2026-05-09 20:09 53.81239 -7.64113 24032 ft 447 kts 97°
2026-05-09 20:10 53.80756 -7.58881 24450 ft 453 kts 98°
2026-05-09 20:10 53.80268 -7.53625 25055 ft 453 kts 98°
2026-05-09 20:10 53.79775 -7.48344 25519 ft 457 kts 97°
2026-05-09 20:10 53.79275 -7.42998 25915 ft 462 kts 98°
2026-05-09 20:11 53.78770 -7.37627 26469 ft 463 kts 98°
2026-05-09 20:11 53.78260 -7.32230 26868 ft 467 kts 98°
2026-05-09 20:11 53.77727 -7.26776 27188 ft 473 kts 99°
2026-05-09 20:11 53.77082 -7.21307 27647 ft 475 kts 102°
2026-05-09 20:12 53.76365 -7.15831 28038 ft 479 kts 102°
2026-05-09 20:12 53.75618 -7.10325 28437 ft 482 kts 103°
2026-05-09 20:12 53.74879 -7.04884 28968 ft 481 kts 102°
2026-05-09 20:12 53.74140 -6.99379 29568 ft 479 kts 102°
2026-05-09 20:13 53.73412 -6.93899 30187 ft 477 kts 102°
2026-05-09 20:13 53.72693 -6.88438 30725 ft 476 kts 102°
2026-05-09 20:13 53.71978 -6.82991 31179 ft 475 kts 102°
2026-05-09 20:13 53.71261 -6.77539 31613 ft 476 kts 102°
2026-05-09 20:14 53.70540 -6.72071 31956 ft 478 kts 102°
2026-05-09 20:14 53.69814 -6.66583 32343 ft 479 kts 102°
2026-05-09 20:14 53.69086 -6.61111 32878 ft 477 kts 102°
2026-05-09 20:14 53.68359 -6.55664 33431 ft 474 kts 102°
2026-05-09 20:15 53.67641 -6.50314 33866 ft 474 kts 102°
2026-05-09 20:15 53.66911 -6.44890 34251 ft 475 kts 102°
2026-05-09 20:15 53.66177 -6.39457 34690 ft 473 kts 102°
2026-05-09 20:15 53.65445 -6.34059 35057 ft 473 kts 102°
2026-05-09 20:16 53.64707 -6.28640 35343 ft 475 kts 102°
2026-05-09 20:16 53.63968 -6.23230 35744 ft 473 kts 102°
2026-05-09 20:16 53.63225 -6.17813 36025 ft 476 kts 103°
2026-05-09 20:16 53.62474 -6.12356 36166 ft 481 kts 103°
2026-05-09 20:17 53.61719 -6.06890 36650 ft 477 kts 103°
2026-05-09 20:17 53.60968 -6.01475 37105 ft 474 kts 103°
2026-05-09 20:17 53.60223 -5.96116 37311 ft 478 kts 103°
2026-05-09 20:17 53.59465 -5.90688 37776 ft 474 kts 103°
2026-05-09 20:18 53.58714 -5.85325 38314 ft 470 kts 103°
2026-05-09 20:18 53.57960 -5.79964 38568 ft 472 kts 103°
2026-05-09 20:18 53.57202 -5.74593 38949 ft 471 kts 103°
2026-05-09 20:18 53.56445 -5.69245 39230 ft 469 kts 103°
2026-05-09 20:19 53.55685 -5.63886 39254 ft 473 kts 103°
2026-05-09 20:19 53.54141 -5.53066 39265 ft 478 kts 103°
2026-05-09 20:20 53.53400 -5.42009 39277 ft 482 kts 91°
2026-05-09 20:20 53.53237 -5.30772 39262 ft 480 kts 91°
2026-05-09 20:21 53.53001 -5.19630 39254 ft 475 kts 92°
2026-05-09 20:21 53.52686 -5.08563 39254 ft 474 kts 93°
2026-05-09 20:22 53.52313 -4.97595 39265 ft 473 kts 93°
2026-05-09 20:22 53.51941 -4.86537 39257 ft 475 kts 93°
2026-05-09 20:23 53.51565 -4.75435 39247 ft 477 kts 93°
2026-05-09 20:23 53.51179 -4.64277 39239 ft 479 kts 93°
2026-05-09 20:24 53.50783 -4.53090 39249 ft 480 kts 93°
2026-05-09 20:24 53.50378 -4.41972 39249 ft 480 kts 94°
2026-05-09 20:25 53.49961 -4.30803 39250 ft 479 kts 94°
2026-05-09 20:25 53.49534 -4.19643 39246 ft 478 kts 94°
2026-05-09 20:26 53.49099 -4.08528 39246 ft 477 kts 94°
2026-05-09 20:26 53.48597 -3.97441 39245 ft 476 kts 99°
2026-05-09 20:27 53.46835 -3.86879 39252 ft 473 kts 111°
2026-05-09 20:27 53.44579 -3.76510 39241 ft 473 kts 111°
2026-05-09 20:28 53.42394 -3.66091 39243 ft 473 kts 110°
2026-05-09 20:28 53.40012 -3.55816 39247 ft 473 kts 117°
2026-05-09 20:29 53.37063 -3.45934 39017 ft 478 kts 118°
2026-05-09 20:29 53.35598 -3.40947 38716 ft 477 kts 117°
2026-05-09 20:29 53.34233 -3.35988 38380 ft 475 kts 112°
2026-05-09 20:29 53.33241 -3.30729 38058 ft 474 kts 106°
2026-05-09 20:30 53.32398 -3.25411 37740 ft 472 kts 105°
2026-05-09 20:30 53.31574 -3.20097 37423 ft 471 kts 105°
2026-05-09 20:30 53.30741 -3.14802 37113 ft 470 kts 106°
2026-05-09 20:30 53.29892 -3.09528 36800 ft 470 kts 106°
2026-05-09 20:31 53.29027 -3.04260 36509 ft 470 kts 107°
2026-05-09 20:31 53.28154 -2.98996 36220 ft 469 kts 107°
2026-05-09 20:31 53.27291 -2.93818 35930 ft 469 kts 107°
2026-05-09 20:31 53.26415 -2.88568 35638 ft 468 kts 107°
2026-05-09 20:32 53.25541 -2.83341 35349 ft 467 kts 107°
2026-05-09 20:32 53.24653 -2.78123 35048 ft 466 kts 107°
2026-05-09 20:32 53.23750 -2.72956 34763 ft 463 kts 108°
2026-05-09 20:32 53.22841 -2.67813 34475 ft 460 kts 108°
2026-05-09 20:33 53.21937 -2.62715 34170 ft 455 kts 108°
2026-05-09 20:33 53.21057 -2.57750 33832 ft 447 kts 108°
2026-05-09 20:33 53.20182 -2.52813 33490 ft 442 kts 108°
2026-05-09 20:33 53.19310 -2.47904 33170 ft 442 kts 108°
2026-05-09 20:34 53.18732 -2.44649 32956 ft 442 kts 108°
2026-05-09 20:34 53.17576 -2.38161 32541 ft 441 kts 108°
2026-05-09 20:34 53.16703 -2.33270 32222 ft 440 kts 109°
2026-05-09 20:34 53.15829 -2.28396 31912 ft 439 kts 109°
2026-05-09 20:35 53.14919 -2.23554 31598 ft 436 kts 114°
2026-05-09 20:35 53.13978 -2.20553 31368 ft 431 kts 128°
2026-05-09 20:35 53.12034 -2.16935 31076 ft 422 kts 144°
2026-05-09 20:35 53.09656 -2.13958 30821 ft 436 kts 148°
2026-05-09 20:36 53.07136 -2.10966 30533 ft 454 kts 148°
2026-05-09 20:36 53.04521 -2.07883 30251 ft 469 kts 148°
2026-05-09 20:36 53.01848 -2.04708 29891 ft 471 kts 148°
2026-05-09 20:36 52.99217 -2.01544 29554 ft 462 kts 148°
2026-05-09 20:37 52.96647 -1.98433 29344 ft 453 kts 148°
2026-05-09 20:37 52.94105 -1.95352 29139 ft 453 kts 148°
2026-05-09 20:37 52.91562 -1.92275 28889 ft 454 kts 148°
2026-05-09 20:37 52.89018 -1.89201 28575 ft 451 kts 148°
2026-05-09 20:38 52.86521 -1.86189 28275 ft 448 kts 148°
2026-05-09 20:38 52.84008 -1.83165 27971 ft 447 kts 148°
2026-05-09 20:38 52.81498 -1.80148 27677 ft 445 kts 148°
2026-05-09 20:38 52.78995 -1.77142 27384 ft 444 kts 148°
2026-05-09 20:39 52.76495 -1.74147 27093 ft 443 kts 148°
2026-05-09 20:39 52.73979 -1.71201 26792 ft 446 kts 150°
2026-05-09 20:39 52.71280 -1.68601 26475 ft 453 kts 155°
2026-05-09 20:39 52.68470 -1.66224 26186 ft 452 kts 157°
2026-05-09 20:40 52.65667 -1.63947 25898 ft 448 kts 157°
2026-05-09 20:40 52.62880 -1.61680 25618 ft 446 kts 157°
2026-05-09 20:40 52.60110 -1.59389 25340 ft 445 kts 156°
2026-05-09 20:40 52.57394 -1.57106 25054 ft 444 kts 156°
2026-05-09 20:41 52.54650 -1.54776 24741 ft 444 kts 156°
2026-05-09 20:41 52.51910 -1.52438 24427 ft 444 kts 155°
2026-05-09 20:41 52.49174 -1.50100 24179 ft 442 kts 155°
2026-05-09 20:41 52.46458 -1.47781 23868 ft 439 kts 155°
2026-05-09 20:42 52.43755 -1.45479 23523 ft 437 kts 155°
2026-05-09 20:42 52.41063 -1.43190 23153 ft 435 kts 155°
2026-05-09 20:42 52.38374 -1.40909 22771 ft 434 kts 155°
2026-05-09 20:42 52.35725 -1.38663 22405 ft 425 kts 155°
2026-05-09 20:43 52.33109 -1.36450 22076 ft 423 kts 155°
2026-05-09 20:43 52.30520 -1.34264 21737 ft 425 kts 155°
2026-05-09 20:43 52.27909 -1.32014 21400 ft 423 kts 154°
2026-05-09 20:43 52.25363 -1.29641 21056 ft 419 kts 152°
2026-05-09 20:44 52.22857 -1.27231 20670 ft 417 kts 152°
2026-05-09 20:44 52.20359 -1.24824 20277 ft 416 kts 152°
2026-05-09 20:44 52.17865 -1.22442 19879 ft 415 kts 152°
2026-05-09 20:44 52.15372 -1.20082 19480 ft 413 kts 152°
2026-05-09 20:45 52.12904 -1.17761 19083 ft 408 kts 152°
2026-05-09 20:45 52.10445 -1.15457 18691 ft 407 kts 153°
2026-05-09 20:45 52.08026 -1.13193 18292 ft 406 kts 153°
2026-05-09 20:45 52.05584 -1.10912 17849 ft 404 kts 153°
2026-05-09 20:46 52.03205 -1.08468 17395 ft 405 kts 142°
2026-05-09 20:46 52.01405 -1.04956 16936 ft 408 kts 120°
2026-05-09 20:46 52.00421 -1.00642 16530 ft 409 kts 103°
2026-05-09 20:46 52.00294 -0.96058 16113 ft 408 kts 83°
2026-05-09 20:47 52.01058 -0.91669 15711 ft 401 kts 66°
2026-05-09 20:47 52.02498 -0.87890 15302 ft 389 kts 49°
2026-05-09 20:47 52.04370 -0.84828 14922 ft 377 kts 43°
2026-05-09 20:47 52.06261 -0.81962 14525 ft 368 kts 42°
2026-05-09 20:48 52.08121 -0.79175 14143 ft 360 kts 42°
2026-05-09 20:48 52.09916 -0.76471 13746 ft 353 kts 42°
2026-05-09 20:48 52.11693 -0.73770 13317 ft 347 kts 43°
2026-05-09 20:48 52.13435 -0.71100 12897 ft 341 kts 43°
2026-05-09 20:49 52.15143 -0.68469 12507 ft 335 kts 43°
2026-05-09 20:49 52.16819 -0.65877 12139 ft 329 kts 43°
2026-05-09 20:49 52.18463 -0.63329 11785 ft 324 kts 43°
2026-05-09 20:49 52.20081 -0.60816 11438 ft 319 kts 43°
2026-05-09 20:50 52.21671 -0.58345 11083 ft 314 kts 43°
2026-05-09 20:50 52.23240 -0.55904 10737 ft 309 kts 43°
2026-05-09 20:50 52.24765 -0.53527 10407 ft 305 kts 43°
2026-05-09 20:50 52.26287 -0.51151 10069 ft 301 kts 43°
2026-05-09 20:51 52.27793 -0.48800 9701 ft 298 kts 43°
2026-05-09 20:51 52.29285 -0.46469 9340 ft 295 kts 42°
2026-05-09 20:51 52.30756 -0.44168 9042 ft 290 kts 43°
2026-05-09 20:51 52.32194 -0.41917 8823 ft 283 kts 41°
2026-05-09 20:52 52.33376 -0.39969 8635 ft 279 kts 51°
2026-05-09 20:52 52.34158 -0.37103 8410 ft 277 kts 80°
2026-05-09 20:52 52.34068 -0.33996 8197 ft 275 kts 104°
2026-05-09 20:52 52.33699 -0.32458 8099 ft 273 kts 117°
2026-05-09 20:53 52.31853 -0.29424 7807 ft 268 kts 153°
2026-05-09 20:53 52.30833 -0.28796 7679 ft 269 kts 167°
2026-05-09 20:53 52.28986 -0.28617 7465 ft 270 kts 190°
2026-05-09 20:53 52.27160 -0.29369 7259 ft 272 kts 197°
2026-05-09 20:54 52.25344 -0.30273 7048 ft 274 kts 200°
2026-05-09 20:54 52.23702 -0.31768 6823 ft 267 kts 218°
2026-05-09 20:54 52.22291 -0.33610 6595 ft 253 kts 221°
2026-05-09 20:54 52.20975 -0.35371 6351 ft 238 kts 221°
2026-05-09 20:55 52.19706 -0.37077 6110 ft 235 kts 221°
2026-05-09 20:55 52.18446 -0.38774 5877 ft 235 kts 220°
2026-05-09 20:55 52.17205 -0.40464 5649 ft 236 kts 221°
2026-05-09 20:55 52.15955 -0.42181 5426 ft 235 kts 220°
2026-05-09 20:56 52.14714 -0.43901 5199 ft 234 kts 221°
2026-05-09 20:56 52.12238 -0.47344 4796 ft 236 kts 220°
2026-05-09 20:56 52.10984 -0.49108 4593 ft 239 kts 221°
2026-05-09 20:57 52.09742 -0.50876 4379 ft 235 kts 221°
2026-05-09 20:57 52.08527 -0.52626 4178 ft 231 kts 221°
2026-05-09 20:57 52.07334 -0.54360 3998 ft 230 kts 220°
2026-05-09 20:57 52.06143 -0.56106 3816 ft 231 kts 220°
2026-05-09 20:58 52.04964 -0.57853 3653 ft 225 kts 221°
2026-05-09 20:58 52.03857 -0.59495 3493 ft 213 kts 221°
2026-05-09 20:58 52.02786 -0.61077 3311 ft 204 kts 221°
2026-05-09 20:58 52.01732 -0.62632 3141 ft 205 kts 220°
2026-05-09 20:59 52.00590 -0.63961 2934 ft 200 kts 197°
2026-05-09 20:59 51.99275 -0.64571 2773 ft 196 kts 192°
2026-05-09 20:59 51.97959 -0.65193 2599 ft 197 kts 192°
2026-05-09 21:00 51.95404 -0.66427 2342 ft 185 kts 193°
2026-05-09 21:00 51.94172 -0.67031 2264 ft 185 kts 193°
2026-05-09 21:00 51.92944 -0.67637 2220 ft 185 kts 193°
2026-05-09 21:00 51.91735 -0.68235 2148 ft 184 kts 193°
2026-05-09 21:01 51.90514 -0.68837 2031 ft 182 kts 193°
2026-05-09 21:01 51.89297 -0.69440 1995 ft 184 kts 193°
2026-05-09 21:01 51.88082 -0.70041 1984 ft 182 kts 193°
2026-05-09 21:02 51.85663 -0.70778 1970 ft 172 kts 158°
2026-05-09 21:02 51.84643 -0.69871 1991 ft 168 kts 141°
2026-05-09 21:02 51.83667 -0.68812 1989 ft 170 kts 141°
2026-05-09 21:02 51.82742 -0.67637 1975 ft 168 kts 124°
2026-05-09 21:03 51.82506 -0.65901 1993 ft 161 kts 76°
2026-05-09 21:03 51.82811 -0.64190 1994 ft 161 kts 76°
2026-05-09 21:03 51.83098 -0.62436 1978 ft 161 kts 74°
2026-05-09 21:03 51.83387 -0.60707 1984 ft 157 kts 75°
2026-05-09 21:04 51.83665 -0.59057 1977 ft 146 kts 75°
2026-05-09 21:04 51.83928 -0.57504 1983 ft 144 kts 75°
2026-05-09 21:04 51.84183 -0.56000 2081 ft 127 kts 75°
2026-05-09 21:04 51.84401 -0.54635 1976 ft 127 kts 75°
2026-05-09 21:05 51.84622 -0.53283 1898 ft 122 kts 75°
2026-05-09 21:05 51.84822 -0.51999 1682 ft 115 kts 77°
2026-05-09 21:05 51.85039 -0.50710 1564 ft 132 kts 75°
2026-05-09 21:05 51.85289 -0.49303 1532 ft 133 kts 74°
2026-05-09 21:06 51.85536 -0.47865 1462 ft 131 kts 75°
2026-05-09 21:06 51.85786 -0.46382 1394 ft 142 kts 73°
2026-05-09 21:06 51.86069 -0.44851 1282 ft 143 kts 73°
2026-05-09 21:06 51.86350 -0.43211 1183 ft 154 kts 76°
2026-05-09 21:07 51.86636 -0.41529 1019 ft 159 kts 74°
2026-05-09 21:07 51.86950 -0.39744 803 ft 169 kts 72°
2026-05-09 21:07 51.87248 -0.38054 574 ft 144 kts 75°
2026-05-09 21:07 51.87508 -0.36528 786 ft 153 kts 76°
2026-05-09 21:08 51.87604 -0.34734 1888 ft 187 kts 90°
2026-05-09 21:08 51.87330 -0.32241 2029 ft 262 kts 105°
2026-05-09 21:08 51.86533 -0.29237 2193 ft 318 kts 116°
2026-05-09 21:08 51.85283 -0.26018 2775 ft 347 kts 122°
2026-05-09 21:09 51.83662 -0.23106 4014 ft 344 kts 139°
2026-05-09 21:09 51.81679 -0.21317 4281 ft 316 kts 160°
2026-05-09 21:09 51.79572 -0.20962 4366 ft 299 kts 186°
2026-05-09 21:09 51.77680 -0.22036 4374 ft 283 kts 213°
2026-05-09 21:10 51.76347 -0.24263 4378 ft 276 kts 241°
2026-05-09 21:10 51.75568 -0.27069 4390 ft 274 kts 250°
2026-05-09 21:10 51.74890 -0.29953 4385 ft 275 kts 251°
2026-05-09 21:10 51.74303 -0.32842 4381 ft 275 kts 257°
2026-05-09 21:11 51.73886 -0.35850 4383 ft 275 kts 259°
2026-05-09 21:12 51.72335 -0.47913 4298 ft 273 kts 260°
2026-05-09 21:12 51.71956 -0.50863 4089 ft 261 kts 260°
2026-05-09 21:12 51.71596 -0.53648 3861 ft 247 kts 260°
2026-05-09 21:12 51.71253 -0.56293 3630 ft 235 kts 259°
2026-05-09 21:13 51.71036 -0.58800 3337 ft 223 kts 276°
2026-05-09 21:13 51.71541 -0.61026 3036 ft 207 kts 313°
2026-05-09 21:13 51.72623 -0.62410 2759 ft 195 kts 331°
2026-05-09 21:13 51.73724 -0.63668 2452 ft 192 kts 329°
2026-05-09 21:14 51.74795 -0.64934 2152 ft 190 kts 329°
2026-05-09 21:14 51.75843 -0.66185 2001 ft 181 kts 329°
2026-05-09 21:14 51.76814 -0.67361 1973 ft 170 kts 329°
2026-05-09 21:14 51.77747 -0.68501 1966 ft 167 kts 329°
2026-05-09 21:15 51.78678 -0.69640 1990 ft 170 kts 329°
2026-05-09 21:15 51.79621 -0.70784 1971 ft 168 kts 332°
2026-05-09 21:15 51.80662 -0.71250 1970 ft 150 kts 20°
2026-05-09 21:15 51.81366 -0.70208 2002 ft 139 kts 69°
2026-05-09 21:16 51.81729 -0.68748 1998 ft 143 kts 67°
2026-05-09 21:16 51.82120 -0.67278 1990 ft 142 kts 68°
2026-05-09 21:16 51.82461 -0.65781 1997 ft 142 kts 72°
2026-05-09 21:16 51.82757 -0.64260 1993 ft 140 kts 73°
2026-05-09 21:17 51.83024 -0.62772 1989 ft 139 kts 74°
2026-05-09 21:17 51.83290 -0.61242 1996 ft 143 kts 74°
2026-05-09 21:17 51.83559 -0.59669 2012 ft 146 kts 75°
2026-05-09 21:17 51.83823 -0.58119 1988 ft 140 kts 74°
2026-05-09 21:18 51.84081 -0.56609 1989 ft 140 kts 74°
2026-05-09 21:18 51.84325 -0.55164 2081 ft 120 kts 75°
2026-05-09 21:18 51.84518 -0.53885 2037 ft 121 kts 77°
2026-05-09 21:18 51.84694 -0.52533 1986 ft 130 kts 76°
2026-05-09 21:19 51.85475 -0.48089 1705 ft 134 kts 73°
2026-05-09 21:19 51.85736 -0.46612 1556 ft 141 kts 75°
2026-05-09 21:20 51.85985 -0.45110 1427 ft 136 kts 75°
2026-05-09 21:20 51.86229 -0.43661 1286 ft 131 kts 73°
2026-05-09 21:20 51.86504 -0.42179 1090 ft 145 kts 72°
2026-05-09 21:20 51.86807 -0.40520 876 ft 158 kts 74°
2026-05-09 21:21 51.87096 -0.38901 660 ft 140 kts 73°
2026-05-09 21:21 51.87347 -0.37487 522 ft 123 kts 75°
2026-05-09 21:21 51.87549 -0.36330 520 ft 69 kts 74°
2026-05-09 21:21 51.87649 -0.35920 515 ft 22 kts 17°
2026-05-09 21:22 51.87775 -0.36024 516 ft 15 kts 285°
2026-05-09 21:22 51.87766 -0.36179 517 ft 14 kts 256°
2026-05-09 21:22 51.87739 -0.36331 517 ft 14 kts 254°
2026-05-09 21:22 51.87715 -0.36480 519 ft 13 kts 255°
2026-05-09 21:23 51.87690 -0.36623 520 ft 13 kts 254°
2026-05-09 21:23 51.87664 -0.36767 523 ft 13 kts 254°
2026-05-09 21:23 51.87645 -0.36892 525 ft 5 kts 266°
2026-05-09 21:23 51.87679 -0.36953 522 ft 11 kts 334°
2026-05-09 21:24 51.87776 -0.37012 515 ft 18 kts 347°
2026-05-09 21:24 51.87913 -0.37075 508 ft 22 kts 340°
2026-05-09 21:24 51.88029 -0.37138 507 ft 15 kts 344°
2026-05-09 21:24 51.88126 -0.37192 511 ft 15 kts 341°
2026-05-09 21:25 51.88223 -0.37243 516 ft 14 kts 342°
2026-05-09 21:25 51.88319 -0.37292 511 ft 7 kts 344°
2026-05-09 21:25 51.88373 -0.37333 510 ft 9 kts 321°
2026-05-09 21:25 51.88403 -0.37370 510 ft 4 kts 324°
2026-05-09 21:26 51.88420 -0.37391 510 ft 0 kts 324°
2026-05-09 21:32 51.88420 -0.37390 510 ft 0 kts 324°